Total_Precipitation_Accumulation
0.91 0.85 0.79 0.81 0.75 0.69 0.66 0.66 0.62 0.56 0.53 0.54 0.52 0.46 0.44 0.38 0.33 0.32 0.29 0.31 0.29 0.30 0.47 0.65 0.82 1.06 1.27 1.44 1.64 1.69 1.44 1.27 1.13 1.01 1.01 1.12 1.21 1.24 1.28 1.36 1.48 1.46 1.32
0.98 0.91 0.84 0.80 0.78 0.73 0.70 0.65 0.59 0.52 0.45 0.41 0.37 0.36 0.40 0.40 0.38 0.38 0.34 0.33 0.32 0.30 0.37 0.54 0.73 0.96 1.22 1.49 1.72 1.96 1.80 1.60 1.42 1.23 1.07 1.07 1.16 1.23 1.25 1.34 1.45 1.61 1.62
1.11 1.04 0.96 0.88 0.79 0.73 0.72 0.73 0.67 0.57 0.49 0.43 0.38 0.35 0.33 0.32 0.33 0.37 0.36 0.35 0.36 0.34 0.34 0.44 0.62 0.82 1.07 1.39 1.70 1.97 2.15 1.97 1.78 1.59 1.35 1.16 1.17 1.27 1.34 1.43 1.51 1.65 1.75
1.20 1.16 1.10 1.05 1.00 0.89 0.79 0.73 0.69 0.62 0.54 0.48 0.43 0.39 0.36 0.32 0.29 0.29 0.31 0.33 0.37 0.37 0.37 0.41 0.52 0.73 0.96 1.17 1.48 1.80 2.19 2.22 2.17 2.02 1.87 1.57 1.36 1.37 1.47 1.54 1.66 1.72 1.73
1.33 1.26 1.20 1.17 1.21 1.17 1.00 0.84 0.74 0.64 0.57 0.50 0.47 0.45 0.41 0.37 0.35 0.34 0.30 0.28 0.30 0.34 0.37 0.40 0.47 0.60 0.76 0.97 1.25 1.57 1.94 2.27 2.39 2.39 2.33 2.14 1.79 1.52 1.54 1.65 1.69 1.78 1.87
1.49 1.41 1.30 1.21 1.22 1.28 1.25 1.07 0.86 0.75 0.65 0.59 0.56 0.53 0.50 0.46 0.40 0.37 0.35 0.33 0.31 0.32 0.37 0.40 0.42 0.49 0.61 0.77 0.99 1.32 1.70 2.12 2.50 2.59 2.57 2.56 2.42 2.03 1.82 1.81 1.82 1.92 2.06
1.71 1.65 1.49 1.39 1.32 1.27 1.23 1.18 1.06 0.94 0.82 0.72 0.71 0.69 0.61 0.54 0.52 0.44 0.37 0.34 0.32 0.31 0.33 0.40 0.44 0.46 0.54 0.67 0.80 0.97 1.32 1.79 2.31 2.84 2.85 2.78 2.86 2.69 2.33 2.16 2.13 2.19 2.37
1.82 1.95 1.81 1.62 1.49 1.39 1.33 1.25 1.15 1.11 1.02 0.88 0.81 0.82 0.80 0.74 0.62 0.51 0.43 0.36 0.33 0.33 0.33 0.35 0.42 0.47 0.50 0.57 0.63 0.79 1.00 1.36 1.86 2.60 3.28 3.31 3.33 3.43 3.05 2.64 2.49 2.52 2.62
1.57 1.67 1.79 1.65 1.59 1.52 1.44 1.33 1.22 1.18 1.16 1.05 0.89 0.96 1.04 0.89 0.65 0.54 0.50 0.45 0.38 0.35 0.33 0.33 0.37 0.44 0.49 0.56 0.59 0.64 0.78 1.04 1.42 2.02 2.90 3.64 3.82 3.99 3.91 3.30 2.97 2.90 2.90
1.49 1.51 1.62 1.67 1.51 1.41 1.35 1.30 1.24 1.16 1.17 1.16 1.02 0.90 0.86 0.83 0.86 0.71 0.53 0.52 0.52 0.47 0.40 0.35 0.34 0.40 0.48 0.57 0.66 0.67 0.70 0.85 1.13 1.56 2.28 3.21 4.00 4.37 4.61 4.23 3.60 3.36 3.28
1.52 1.56 1.56 1.62 1.65 1.48 1.28 1.21 1.23 1.23 1.18 1.14 1.06 0.96 0.84 0.71 0.69 0.82 0.67 0.58 0.63 0.61 0.58 0.50 0.45 0.45 0.49 0.59 0.65 0.73 0.82 0.89 1.17 1.40 1.78 2.42 3.47 4.34 4.95 5.04 4.46 3.83 3.52
1.49 1.55 1.57 1.54 1.56 1.58 1.48 1.28 1.20 1.21 1.17 1.13 1.10 1.04 0.99 0.93 0.79 0.78 0.73 0.58 0.58 0.57 0.61 0.67 0.65 0.62 0.63 0.68 0.78 0.95 0.93 1.01 1.24 1.34 1.41 1.70 2.43 3.43 4.35 4.93 4.76 4.12 3.72
1.43 1.45 1.51 1.53 1.49 1.47 1.49 1.42 1.30 1.23 1.18 1.16 1.12 1.06 0.99 0.95 0.88 0.91 0.94 0.78 0.64 0.56 0.57 0.63 0.68 0.71 0.74 0.77 0.91 1.02 0.99 1.09 1.17 1.25 1.26 1.35 1.70 2.42 3.31 4.27 4.74 4.41 3.88
1.33 1.30 1.32 1.35 1.33 1.29 1.31 1.35 1.31 1.20 1.19 1.21 1.17 1.14 1.07 0.95 0.93 1.02 1.12 1.18 1.04 0.73 0.60 0.59 0.60 0.67 0.77 0.85 0.99 1.12 1.07 1.12 1.15 1.22 1.24 1.20 1.31 1.61 2.29 3.33 4.60 5.05 4.42
1.28 1.31 1.30 1.27 1.17 1.15 1.13 1.13 1.17 1.12 1.12 1.14 1.16 1.17 1.16 1.04 1.01 1.02 1.08 1.28 1.53 1.31 0.80 0.59 0.60 0.66 0.73 0.83 1.03 0.95 0.90 0.95 0.99 1.03 1.12 1.14 1.17 1.29 1.60 2.20 3.16 4.52 5.18
1.21 1.26 1.29 1.27 1.20 1.10 1.09 1.08 1.04 0.99 1.02 1.05 1.08 1.14 1.14 1.08 1.03 1.01 1.07 1.12 1.25 1.42 1.14 0.66 0.59 0.64 0.76 0.80 0.89 0.83 0.86 1.01 1.00 1.01 1.05 1.09 1.15 1.19 1.34 1.62 2.13 2.98 4.20
1.11 1.10 1.15 1.19 1.18 1.12 1.08 1.12 1.07 0.99 0.99 1.00 1.02 1.05 1.05 1.07 1.10 1.05 1.05 1.08 1.08 1.15 1.14 0.70 0.56 0.59 0.76 0.84 0.81 0.77 0.81 0.87 0.90 1.00 1.01 1.03 1.08 1.16 1.32 1.49 1.76 2.20 2.90
1.09 1.09 1.08 1.11 1.11 1.13 1.12 1.11 1.07 1.00 0.99 0.99 0.98 0.98 0.97 0.99 1.06 1.01 1.00 0.99 0.96 0.92 0.96 0.79 0.56 0.56 0.64 0.73 0.83 0.89 0.87 0.86 0.84 0.93 0.96 1.04 1.15 1.17 1.24 1.40 1.62 1.92 2.30
1.06 1.06 1.07 1.08 1.12 1.15 1.14 1.07 1.06 1.01 0.97 0.97 0.98 0.99 0.96 1.00 1.04 0.99 1.00 0.95 0.85 0.80 0.82 0.84 0.66 0.57 0.61 0.66 0.83 0.98 0.96 0.96 0.92 0.94 0.97 1.05 1.13 1.20 1.24 1.32 1.50 1.72 1.93
1.08 1.01 0.99 1.03 1.12 1.28 1.31 1.24 1.26 1.15 1.02 0.96 0.91 0.90 0.94 1.06 1.08 1.07 1.09 0.98 0.90 0.92 0.93 0.98 0.84 0.70 0.72 0.75 0.92 1.13 1.21 1.15 1.10 1.00 1.03 1.08 1.19 1.28 1.28 1.25 1.28 1.35 1.50
1.05 0.97 0.94 0.96 1.04 1.39 1.76 1.75 1.67 1.42 1.13 0.96 0.87 0.87 0.94 1.07 1.13 1.28 1.39 1.25 1.21 1.29 1.25 1.26 1.16 1.04 0.98 1.01 1.10 1.13 1.28 1.30 1.29 1.16 1.07 1.01 1.06 1.08 1.14 1.20 1.23 1.24 1.31
1.09 1.00 0.95 0.93 0.95 1.21 1.83 1.98 1.68 1.27 1.09 0.98 0.92 0.87 0.87 0.99 1.02 1.13 1.30 1.38 1.44 1.55 1.61 1.59 1.52 1.38 1.15 1.06 1.11 1.25 1.32 1.49 1.54 1.26 1.19 1.13 1.09 1.17 1.12 1.12 1.26 1.26 1.28
1.16 1.16 1.02 0.93 0.89 1.04 1.63 1.77 1.49 1.15 1.00 0.95 0.90 0.88 0.88 0.93 0.99 0.98 1.08 1.12 1.15 1.30 1.53 1.64 1.69 1.34 1.15 1.10 1.30 1.51 1.48 1.55 1.50 1.40 1.50 1.45 1.18 1.20 1.13 1.24 1.40 1.31 1.26
1.06 1.14 1.11 1.01 0.92 0.96 1.46 1.62 1.39 1.12 1.00 0.93 0.86 0.86 0.85 0.86 0.97 1.17 1.14 1.08 0.99 1.01 1.22 1.42 1.66 1.49 1.32 1.37 1.67 1.99 2.08 1.96 1.57 1.36 1.52 1.70 1.30 1.19 1.21 1.30 1.44 1.36 1.24
0.95 0.99 1.02 1.01 0.96 0.93 1.23 1.49 1.34 1.07 1.01 0.94 0.85 0.84 0.85 0.84 1.04 1.31 1.26 1.11 0.94 0.85 0.97 1.29 1.59 1.72 1.76 1.88 2.11 2.42 2.58 2.41 1.96 1.44 1.41 1.65 1.50 1.33 1.43 1.58 1.63 1.51 1.26
0.91 0.92 0.94 0.95 0.89 0.83 1.05 1.31 1.31 1.05 0.98 0.93 0.89 0.85 0.96 1.05 1.20 1.33 1.21 1.17 1.24 1.03 0.92 0.98 1.06 1.18 1.28 1.44 1.80 2.09 2.38 2.45 2.11 1.89 1.56 1.63 1.74 1.73 1.96 1.82 1.69 1.47 1.26